Location: Muenchen
(48.1800°N, 11.5800°E)
Time: 15:02:45
(UTC+02:00)

Sich 1 Rocket - Visible Passes

Search period start: 22 May 2015 00:00
Search period end: 01 June 2015 00:00
Orbit: 617 x 653 km, 82.5° (Epoch: 21 May)

Date Brightness Start Highest point End Pass type
(mag) Time Alt. Az. Time Alt. Az. Time Alt. Az.
22 May 6.3 03:37:56 10° ESE 03:40:36 16° E 03:43:27 10° NE visible
23 May 5.5 03:58:56 10° SSE 04:02:52 30° E 04:06:51 10° NNE visible
24 May 4.3 04:20:45 10° S 04:25:13 57° E 04:29:42 10° NNE visible
25 May 6.3 03:07:55 10° ESE 03:10:00 13° E 03:12:18 10° NE visible
26 May 5.6 03:28:33 10° SE 03:32:13 25° E 03:35:58 10° NNE visible
27 May 4.5 03:50:11 10° SSE 03:54:33 48° E 03:58:56 10° NNE visible
28 May 6.4 02:38:12 10° E 02:39:23 11° E 02:40:49 10° ENE visible
28 May 3.7 04:12:25 10° S 04:16:59 87° WNW 04:21:33 10° N visible
29 May 5.8 02:58:13 10° SE 03:01:34 21° E 03:05:02 10° NE visible
29 May 4.2 04:35:11 10° SSW 04:39:33 44° WNW 04:43:54 10° N visible
30 May 4.8 03:19:40 10° SSE 03:23:52 40° E 03:28:07 10° NNE visible
31 May 3.7 03:42:14 13° S 03:46:16 79° E 03:50:48 10° NNE visible
